This demonstration page uses our WeatherBlox Daily Observations layout. Learn more.

Left ArrowRight Arrow

40.92945, -100.16068

Hourly Observations for February 23, 2021

Temp ( °F °C ) Dew Point ( °F °C ) Humidity (%) Winds ( mph kmh ) Pressure ( in mb ) Visibility ( mi km ) Precip ( " mm )
12:15 am 00:15 Clear 32 -0.1 28 -2 87 87 W 10 17 30.08 1019 10 16.0934 N/A
12:35 am 00:35 Clear 31 -0.5 28 -2.3 88 88 W 9 15 30.07 1018 10 16.0934 N/A
12:55 am 00:55 Clear 30 -1 27 -2.7 88 88 W 7 11 30.08 1019 10 16.0934 N/A
1:15 am 01:15 Clear 29 -1.4 27 -2.9 90 90 W 8 13 30.08 1019 10 16.0934 N/A
1:35 am 01:35 Clear 30 -1 27 -2.8 88 88 W 7 11 30.08 1019 10 16.0934 N/A
1:55 am 01:55 Clear 32 undefined 28 -2.2 85 85 W 6 9 30.07 1018 10 16.0934 N/A
2:15 am 02:15 Clear 32 -0.1 28 -2.2 86 86 WSW 3 6 30.07 1018 10 16.0934 N/A
2:35 am 02:35 Clear 31 -0.4 28 -2.4 87 87 WSW 3 6 30.05 1018 10 16.0934 N/A
2:55 am 02:55 Clear 30 -0.9 28 -2.5 89 89 N N/A 30.05 1017 10 16.0934 N/A
3:15 am 03:15 Clear 28 -2.1 24 -4.3 85 85 N N/A 30.04 1017 10 16.0934 N/A
3:35 am 03:35 Clear 27 -3 24 -4.2 92 92 SE 5 7 30.04 1017 10 16.0934 N/A
3:55 am 03:55 Clear 26 -3.6 24 -4.7 92 92 N N/A 30.04 1017 10 16.0934 N/A
4:15 am 04:15 Clear 26 -3.1 25 -4.1 93 93 SSW 3 6 30.02 1017 10 16.0934 N/A
4:35 am 04:35 Clear 24 -4.5 22 -5.8 91 91 WNW 5 7 30.03 1017 10 16.0934 N/A
4:55 am 04:55 Clear 27 -2.9 25 -4 92 92 WSW 7 11 30.03 1017 10 16.0934 N/A
5:15 am 05:15 Clear 28 -2.5 24 -4.3 88 88 N N/A 30.01 1016 10 16.0934 N/A
5:35 am 05:35 Clear 28 -2.5 25 -3.8 91 91 N N/A 29.99 1016 10 16.0934 N/A
5:55 am 05:55 Clear 28 -2.3 25 -3.7 90 90 N N/A 29.98 1015 10 16.0934 N/A
6:15 am 06:15 Clear 27 -2.7 25 -4 91 91 N N/A 29.97 1015 10 16.0934 N/A
6:35 am 06:35 Clear 26 -3.5 24 -4.5 93 93 E 3 6 29.97 1015 10 16.0934 N/A
6:55 am 06:55 Clear 26 -3.1 24 -4.5 90 90 N N/A 29.96 1014 10 16.0934 N/A
7:15 am 07:15 Clear 23 -5 21 -6.1 92 92 N N/A 29.98 1015 10 16.0934 N/A
7:35 am 07:35 Sunny 24 -4.3 22 -5.5 91 91 N N/A 29.97 1015 10 16.0934 N/A
7:55 am 07:55 Sunny 24 -4.5 21 -6.2 88 88 SW 6 9 29.96 1015 10 16.0934 N/A
8:15 am 08:15 Sunny 26 -3.6 23 -5.1 89 89 N N/A 29.95 1014 10 16.0934 N/A
8:35 am 08:35 Sunny 31 -0.6 26 -3.3 82 82 WNW 5 7 29.93 1014 10 16.0934 N/A
8:55 am 08:55 Sunny 35 1.9 27 -2.7 72 72 NNW 5 7 29.9 1012 10 16.0934 N/A
9:10 am 09:10 Sunny 38 3.1 28 -2 70 70 N N/A 29.89 1012 10 16.0934 N/A
9:35 am 09:35 Sunny 42 5.7 29 -1.6 60 60 SW 16 26 29.85 1011 10 16.0934 N/A
9:55 am 09:55 Sunny 44 6.5 29 -1.5 57 57 SW 9 15 29.83 1010 10 16.0934 N/A
10:15 am 10:15 Sunny 45 7 29 -1.4 55 55 SW 8 13 29.82 1010 10 16.0934 N/A
10:35 am 10:35 Sunny 45 7 30 -1.1 57 57 WSW 12 19 29.82 1010 10 16.0934 N/A
10:55 am 10:55 Sunny 45 7 31 -0.4 60 60 SW 15 24 29.8 1009 10 16.0934 N/A
11:15 am 11:15 Sunny 46 7.9 31 -0.3 57 57 WSW 8 13 29.79 1009 10 16.0934 N/A
11:35 am 11:35 Sunny 47 8.5 32 -0.2 55 55 WSW 13 20 29.76 1008 10 16.0934 N/A
11:55 am 11:55 Sunny 48 8.7 32 undefined 55 55 SW 9 15 29.76 1008 10 16.0934 N/A
12:15 pm 12:15 Sunny 50 9.9 32 0.1 51 51 W 6 9 29.74 1007 10 16.0934 N/A
12:35 pm 12:35 Sunny 50 10.2 33 0.6 52 52 WNW 7 11 29.74 1007 10 16.0934 N/A
12:55 pm 12:55 Sunny 49 9.5 35 1.5 58 58 W 7 11 29.74 1007 10 16.0934 N/A
1:15 pm 13:15 Sunny 51 10.3 34 1.2 54 54 WSW 9 15 29.71 1006 10 16.0934 N/A
1:35 pm 13:35 Sunny 51 10.6 37 2.5 58 58 WSW 7 11 29.71 1006 10 16.0934 N/A
1:55 pm 13:55 Sunny 52 11.1 36 2.4 55 55 WSW 7 11 29.69 1005 10 16.0934 N/A
2:15 pm 14:15 Sunny 53 11.7 38 3.1 56 56 W 6 9 29.69 1005 10 16.0934 N/A
2:35 pm 14:35 Sunny 57 14 31 -0.5 37 37 NW 20 31 29.66 1004 10 16.0934 N/A
2:55 pm 14:55 Sunny 53 11.9 33 0.3 45 45 W 9 15 29.67 1005 10 16.0934 N/A
3:15 pm 15:15 Sunny 54 12.2 30 -1.1 40 40 NW 17 28 29.67 1005 10 16.0934 N/A
3:35 pm 15:35 Sunny 54 12.4 32 undefined 43 43 WNW 10 17 29.67 1005 10 16.0934 N/A
3:55 pm 15:55 Sunny 54 12 33 0.3 45 45 WNW 10 17 29.67 1005 10 16.0934 N/A
4:15 pm 16:15 Sunny 53 11.6 34 1 48 48 WNW 12 19 29.69 1005 10 16.0934 N/A
4:35 pm 16:35 Sunny 52 11.3 34 1.2 50 50 WNW 9 15 29.69 1005 10 16.0934 N/A
4:55 pm 16:55 Sunny 51 10.7 34 1.3 53 53 WNW 12 19 29.7 1006 10 16.0934 N/A
5:15 pm 17:15 Sunny 50 10.2 34 1.3 54 54 WNW 10 17 29.72 1006 10 16.0934 N/A
5:35 pm 17:35 Sunny 48 9 35 1.4 59 59 NW 12 19 29.74 1007 10 16.0934 N/A
5:55 pm 17:55 Sunny 44 6.7 33 0.7 66 66 NW 12 19 29.77 1008 10 16.0934 N/A
6:15 pm 18:15 Sunny 42 5.3 33 0.5 71 71 NW 9 15 29.79 1009 10 16.0934 N/A
6:35 pm 18:35 Clear 40 4.6 33 0.5 75 75 NW 7 11 29.8 1009 10 16.0934 N/A
6:55 pm 18:55 Clear 40 4.4 32 0.2 74 74 NW 8 13 29.81 1010 10 16.0934 N/A
7:15 pm 19:15 Clear 40 4.5 32 undefined 73 73 NW 12 19 29.83 1010 10 16.0934 N/A
7:35 pm 19:35 Clear 40 4.6 32 0.1 73 73 NW 10 17 29.85 1011 10 16.0934 N/A
7:55 pm 19:55 Clear 40 4.7 32 0.1 72 72 NNW 12 19 29.87 1012 10 16.0934 N/A
8:15 pm 20:15 Clear 40 4.4 33 0.3 75 75 N 10 17 29.88 1012 10 16.0934 N/A
8:35 pm 20:35 Clear 41 4.8 33 0.5 74 74 N 13 20 29.9 1013 10 16.0934 N/A
8:55 pm 20:55 Clear 40 4.5 32 0.1 73 73 NNW 16 26 29.91 1013 10 16.0934 N/A
9:15 pm 21:15 Clear 40 4.6 31 -0.5 70 70 N 15 24 29.94 1014 10 16.0934 N/A
9:35 pm 21:35 Clear 39 4 31 -0.6 72 72 NW 12 19 29.96 1014 10 16.0934 N/A
9:55 pm 21:55 Clear 38 3.5 31 -0.8 74 74 NNW 10 17 29.97 1015 10 16.0934 N/A
10:15 pm 22:15 Clear 37 2.7 31 -0.8 78 78 NW 10 17 29.99 1016 10 16.0934 N/A
10:35 pm 22:35 Clear 37 2.5 31 -0.8 79 79 NW 8 13 30 1016 10 16.0934 N/A
10:55 pm 22:55 Clear 37 2.5 30 -0.9 79 79 NW 9 15 30.02 1017 10 16.0934 N/A
11:15 pm 23:15 Clear 36 2 30 -1 81 81 NW 9 15 30.03 1017 10 16.0934 N/A
11:35 pm 23:35 Clear 35 1.9 30 -1.1 81 81 NW 9 15 30.04 1017 10 16.0934 N/A
11:55 pm 23:55 Clear 36 2 29 -1.5 78 78 NW 12 19 30.05 1018 10 16.0934 N/A

Powered by AerisWeather